Weather History for Waycross, GA

Change the Weather History Date:

Wednesday, August 13, 2014

  Actual Average (KAMG) Record (KAMG)
Temperature  
Mean Temperature 84 °F 82 °F  
Max Temperature 94 °F 91 °F 100 °F (1954)
Min Temperature 76 °F 72 °F 60 °F (1962)
Degree Days  
Heating Degree Days 0 0  
Month to date heating degree days 0  
Since 1 June heating degree days 0  
Since 1 July heating degree days 0  
Cooling Degree Days 20 17  
Month to date cooling degree days 221  
Year to date cooling degree days 1623  
Since 1 June cooling degree days 1193  
Growing Degree Days 34 (Base 50)    
Moisture  
Dew Point 77 °F    
Average Humidity 85    
Maximum Humidity 99    
Minimum Humidity 57    
Precipitation  
Precipitation 0.00 in 0.19 in 1.90 in (1969)
Month to date precipitation 2.49  
Year to date precipitation 31.29  
Snow  
Snow 0.00 in 0.00 in 0.00 in ()
Month to date snowfall 0.0  
Since 1 June snowfall 0.0  
Since 1 July snowfall 0.0  
Snow Depth -    
Sea Level Pressure  
Sea Level Pressure 29.95 in    
Wind  
Wind Speed 6 mph (WSW)    
Max Wind Speed 13 mph    
Max Gust Speed 16 mph    
Visibility 9 miles    
Events      
T = Trace of Precipitation, MM = Missing Value Source: NWS Daily Summary

Daily Weather History Graph

Daily Weather History Graph

Search for Another Location

Airport:

Trip Planner

Search our weather history database for the weather conditions in past years. The results will help you decide how hot, cold, wet, or windy it might be!

Date:

Astronomy

Aug. 13, 2014 Rise Set
Actual Time 6:53 AM EDT 8:14 PM EDT
Civil Twilight 6:28 AM EDT 8:39 PM EDT
Nautical Twilight 5:57 AM EDT 9:10 PM EDT
Astronomical Twilight 5:25 AM EDT 9:42 PM EDT
Moon 10:17 PM EDT (8/13) 10:04 AM EDT (8/13)
Length of Visible Light 14h 11m
Length of Day
13h 20m
Waning Gibbous, 88% of the Moon is Illuminated
Aug 13
Waning Gibbous
Aug 17
Last Quarter
Aug 25
New
Sep 2
First Quarter
Sep 8
Full

Hourly Weather History & Observations

Time (EDT) Temp. Heat Index Dew Point Humidity Pressure Visibility Wind Dir Wind Speed Gust Speed Precip Events Conditions
12:15 AM 76.6 °F - 75.7 °F 97% 29.94 in 10.0 mi SW 5.8 mph - N/A   Clear
12:35 AM 76.5 °F - 75.6 °F 97% 29.94 in 10.0 mi SW 5.8 mph - N/A   Scattered Clouds
12:55 AM 76.6 °F - 75.6 °F 96% 29.94 in 10.0 mi SW 3.5 mph - N/A   Clear
1:15 AM 76.6 °F - 75.4 °F 96% 29.93 in 10.0 mi SW 4.6 mph - N/A   Clear
1:35 AM 77.0 °F - 75.6 °F 95% 29.94 in 10.0 mi SW 5.8 mph - N/A   Clear
1:55 AM 77.0 °F - 75.7 °F 96% 29.94 in 10.0 mi SW 5.8 mph - N/A   Clear
2:15 AM 77.0 °F - 75.7 °F 96% 29.93 in 10.0 mi SW 5.8 mph - N/A   Clear
2:35 AM 76.5 °F - 75.6 °F 97% 29.93 in 10.0 mi WSW 4.6 mph - N/A   Clear
2:55 AM 76.6 °F - 76.1 °F 98% 29.93 in 10.0 mi WSW 5.8 mph - N/A   Mostly Cloudy
3:15 AM 76.3 °F - 75.9 °F 99% 29.93 in 7.0 mi SW 4.6 mph - N/A   Scattered Clouds
3:35 AM 76.5 °F - 76.1 °F 99% 29.93 in 7.0 mi WSW 4.6 mph - N/A   Clear
3:55 AM 77.0 °F - 76.5 °F 98% 29.93 in 7.0 mi WSW 4.6 mph - N/A   Clear
4:15 AM 77.0 °F - 76.5 °F 98% 29.93 in 7.0 mi SW 4.6 mph - N/A   Clear
4:35 AM 77.0 °F - 76.6 °F 99% 29.93 in 7.0 mi WSW 5.8 mph - N/A   Mostly Cloudy
4:55 AM 77.0 °F - 76.5 °F 98% 29.93 in 5.0 mi WSW 3.5 mph - N/A   Mostly Cloudy
5:15 AM 77.0 °F - 76.5 °F 98% 29.93 in 7.0 mi WSW 3.5 mph - N/A   Scattered Clouds
5:35 AM 77.0 °F - 76.6 °F 99% 29.93 in 7.0 mi West 3.5 mph - N/A   Scattered Clouds
5:55 AM 77.0 °F - 76.6 °F 99% 29.93 in 7.0 mi WSW 3.5 mph - N/A   Clear
6:15 AM 77.0 °F - 76.6 °F 99% 29.94 in 7.0 mi WSW 3.5 mph - N/A   Clear
6:35 AM 77.0 °F - 76.6 °F 99% 29.94 in 5.0 mi SW 4.6 mph - N/A   Clear
6:55 AM 77.0 °F - 76.6 °F 99% 29.95 in 5.0 mi WSW 4.6 mph - N/A   Clear
7:15 AM 77.4 °F - 77.0 °F 99% 29.95 in 7.0 mi West 4.6 mph - N/A   Clear
7:35 AM 78.1 °F - 77.2 °F 97% 29.96 in 7.0 mi West 4.6 mph - N/A   Clear
7:55 AM 79.0 °F - 77.9 °F 96% 29.96 in 7.0 mi WSW 5.8 mph - N/A   Clear
8:35 AM 81.5 °F 90.2 °F 78.8 °F 91% 29.97 in 10.0 mi West 6.9 mph - N/A   Clear
8:55 AM 82.4 °F 92.7 °F 79.2 °F 90% 29.97 in 10.0 mi West 5.8 mph - N/A   Scattered Clouds
9:15 AM 83.7 °F 95.7 °F 79.5 °F 87% 29.97 in 10.0 mi West 8.1 mph - N/A   Scattered Clouds
9:35 AM 84.6 °F 98.1 °F 79.9 °F 86% 29.97 in 10.0 mi West 8.1 mph - N/A   Scattered Clouds
9:55 AM 86.2 °F 101.4 °F 80.2 °F 82% 29.97 in 10.0 mi WNW 9.2 mph - N/A   Mostly Cloudy
10:15 AM 86.0 °F 101.9 °F 80.6 °F 84% 29.98 in 10.0 mi West 9.2 mph - N/A   Mostly Cloudy
10:35 AM 87.3 °F 102.6 °F 79.7 °F 78% 29.98 in 10.0 mi West 6.9 mph - N/A   Scattered Clouds
10:55 AM 87.8 °F 102.5 °F 78.8 °F 75% 29.98 in 10.0 mi West 10.4 mph - N/A   Scattered Clouds
11:15 AM 88.5 °F 104.1 °F 79.2 °F 74% 29.98 in 10.0 mi West 5.8 mph - N/A   Scattered Clouds
11:35 AM 88.5 °F 103.5 °F 79.0 °F 73% 29.98 in 10.0 mi West 9.2 mph - N/A   Mostly Cloudy
11:55 AM 89.4 °F 104.9 °F 78.8 °F 71% 29.97 in 10.0 mi West 9.2 mph - N/A   Mostly Cloudy
12:15 PM 89.2 °F 103.7 °F 78.3 °F 70% 29.97 in 10.0 mi West 8.1 mph - N/A   Overcast
12:35 PM 90.3 °F 105.5 °F 78.3 °F 68% 29.97 in 10.0 mi West 10.4 mph - N/A   Scattered Clouds
12:55 PM 91.4 °F 105.8 °F 77.7 °F 64% 29.96 in 10.0 mi West 9.2 mph - N/A   Scattered Clouds
1:15 PM 91.2 °F 104.6 °F 76.8 °F 63% 29.96 in 10.0 mi WSW 5.8 mph - N/A   Scattered Clouds
1:35 PM 93.2 °F 107.2 °F 77.2 °F 59% 29.96 in 10.0 mi SW 9.2 mph - N/A   Scattered Clouds
1:55 PM 93.2 °F 108.7 °F 77.9 °F 61% 29.95 in 10.0 mi SW 9.2 mph 16.1 mph N/A   Scattered Clouds
2:15 PM 93.7 °F 107.1 °F 76.3 °F 57% 29.94 in 10.0 mi SW 8.1 mph - N/A   Mostly Cloudy
2:35 PM 92.1 °F 104.3 °F 75.9 °F 59% 29.93 in 10.0 mi West 9.2 mph - N/A   Mostly Cloudy
2:55 PM 90.9 °F 103.7 °F 76.8 °F 63% 29.94 in 10.0 mi SW 8.1 mph - N/A   Mostly Cloudy
3:15 PM 90.9 °F 105.7 °F 77.9 °F 66% 29.93 in 10.0 mi WSW 8.1 mph - N/A   Mostly Cloudy
3:35 PM 89.4 °F 104.9 °F 79.0 °F 71% 29.93 in 10.0 mi SW 12.7 mph - N/A   Scattered Clouds
3:55 PM 87.4 °F 101.4 °F 78.8 °F 75% 29.93 in 10.0 mi SW 8.1 mph 16.1 mph N/A   Clear
4:15 PM 86.0 °F 99.8 °F 79.3 °F 80% 29.93 in 10.0 mi SW 8.1 mph - N/A   Clear
4:35 PM 84.7 °F 96.5 °F 78.3 °F 81% 29.93 in 10.0 mi SW 10.4 mph - N/A   Clear
4:55 PM 83.8 °F 94.7 °F 78.1 °F 83% 29.93 in 10.0 mi SW 8.1 mph - N/A   Clear
5:15 PM 83.3 °F 93.1 °F 77.7 °F 83% 29.93 in 10.0 mi SW 8.1 mph - N/A   Clear
5:35 PM 83.3 °F 92.8 °F 77.4 °F 82% 29.93 in 10.0 mi WSW 8.1 mph - N/A   Clear
5:50 PM 82.4 °F 90.9 °F 77.0 °F 84% 29.94 in 10.0 mi SW 9.2 mph - N/A   Clear
6:15 PM 82.6 °F 91.4 °F 77.2 °F 84% 29.94 in 10.0 mi SW 8.1 mph - N/A   Clear
6:35 PM 82.9 °F 91.8 °F 77.0 °F 82% 29.94 in 10.0 mi SSW 8.1 mph - N/A   Clear
6:55 PM 83.7 °F 92.7 °F 76.6 °F 79% 29.94 in 10.0 mi SSW 8.1 mph - N/A   Clear
7:15 PM 83.3 °F 92.4 °F 76.8 °F 81% 29.94 in 10.0 mi SSW 6.9 mph - N/A   Clear
7:35 PM 82.6 °F 91.1 °F 77.0 °F 83% 29.94 in 10.0 mi SSW 6.9 mph - N/A   Clear
7:55 PM 82.4 °F 90.9 °F 77.2 °F 84% 29.94 in 10.0 mi SSW 3.5 mph - N/A   Clear
8:15 PM 81.5 °F 89.2 °F 77.2 °F 87% 29.94 in 10.0 mi SW 4.6 mph - N/A   Clear
8:35 PM 80.6 °F 87.1 °F 77.0 °F 89% 29.94 in 10.0 mi SSW 5.8 mph - N/A   Clear
8:55 PM 80.4 °F 86.8 °F 77.2 °F 90% 29.95 in 10.0 mi SW 5.8 mph - N/A   Clear
9:35 PM 79.3 °F - 77.2 °F 93% 29.95 in 10.0 mi SW 3.5 mph - N/A   Clear
9:55 PM 79.0 °F - 77.0 °F 94% 29.95 in 10.0 mi Calm Calm - N/A   Clear